Location: Unspecified
(33.6682°S, 0.0000°E)
Time: 19:21:34
(UTC+00:00)

Tiros 1 despin weight - Pass Details

Date: 22 June 2019
Orbit: 594 x 642 km, 48.2° (Epoch: 20 July)

Event Time Altitude Azimuth Distance (km) Brightness Sun altitude
Rises 18:39:34 0° 247° (WSW) 2,962 ? -20.2°
Reaches altitude 10° 18:42:24 10° 263° (W) 2,041 ? -20.7°
Maximum altitude 18:45:51 20° 310° (NW) 1,455 ? -21.4°
Drops below altitude 10° 18:49:17 10° 358° (N) 2,007 ? -22.1°
Sets 18:52:03 0° 14° (NNE) 2,898 ? -22.7°
